Fredericksburg, TX

8:20 PM CDT on August 29, 2016 (GMT -0500)
The Computer Haus | | Change Station

Elev 1722 ft 30.29 °N, 98.87 °W | Updated 1 second ago

Clear
Clear
80.8 °F
Feels Like 82 °F
N
0.0
Wind Variable Wind from North
Gusts 0.0 mph

Today
High -- | Low -- °F
--% Chance of Precip.
Yesterday
High -- | Low -- °F
Precip. -- in
Pressure 30.00 in
Visibility 10.0 miles
Clouds Clear
Heat Index 82 °F
Dew Point 60 °F
Humidity 50%
Rainfall 0.00 in
Snow Depth Not available.
7:10 AM 8:01 PM
Waning Crescent, 6% visible
METAR KT82 300055Z AUTO 08004KT 10SM CLR 27/19 A3000 RMK AO2 T02650188
Pressure 30.00 in
Visibility 10.0 miles
Clouds Clear
Heat Index 82 °F
Dew Point 60 °F
Humidity 50%
Rainfall 0.00 in
Snow Depth Not available.
7:10 AM 8:01 PM
Waning Crescent, 6% visible
METAR KT82 300055Z AUTO 08004KT 10SM CLR 27/19 A3000 RMK AO2 T02650188

10-Day Weather Forecast

Almanac

Astronomy

Aug. 29, 2016 Rise Set
Actual Time
Civil Twilight
Nautical Twilight
Astronomical Twilight
Moon
Length of Visible Light
Length of Day
Tomorrow will be .
, % of the Moon is Illuminated

Today's Extremes

State Highs State Lows

Community

WunderPhotos

Upload Photos

1,935,709 photos uploaded!

WunderBlog® & News

Nearby

Air Quality

  Air Quality AQ Index Pollutant
Not available.

Snow Depth

Station Depth Elevation

Earthquake Activity

City Distance Mag. Time & Date
Minimum magnitude displayed is 2.5.

Coastal Water Temperatures

Place Temperature

Stations

Nearby Weather Stations

Station Location Temp. Windchill Dew Point Humidity Wind Precip. Elev Updated Type
                   

Watches & Warnings

There are currently no watches in effect.